CAPE
10 10 4 19 26 11 19 15 2 3 10 28 46 85 95 117 72 102 145 159 165 139 118 109 70 41 16 1 0 47 16 79 309 152 17 43 0 5 1 0 0 0 0 0 0 0 0
6 10 11 17 10 12 19 4 12 21 23 35 34 61 84 101 76 108 78 168 189 239 176 170 102 21 12 4 0 26 70 205 286 156 5 38 0 2 3 4 0 0 0 0 0 0 0
2 6 12 10 10 16 13 14 17 22 25 37 37 51 51 98 172 67 85 80 201 259 206 198 138 10 28 1 39 201 45 38 267 143 10 16 1 19 104 11 2 9 5 0 0 0 0
8 6 8 7 8 8 15 14 12 33 31 28 33 31 32 55 10 6 14 128 220 261 243 164 157 26 2 0 0 0 34 0 3 181 58 5 77 14 116 31 19 11 18 6 0 0 0
6 6 6 5 7 7 4 9 12 36 35 35 27 5 38 1 9 0 22 88 185 219 259 191 90 51 3 0 0 0 11 11 155 189 265 103 131 48 39 20 26 17 0 0 0 0 0
4 5 5 4 5 7 7 6 14 34 26 33 26 0 13 3 0 2 7 28 78 93 88 119 49 12 1 45 0 0 0 0 130 141 115 55 46 16 11 35 0 0 0 0 0 0 0
5 4 4 4 7 6 3 3 12 22 25 17 30 0 16 3 0 0 69 82 46 15 22 0 1 3 0 0 32 0 72 64 115 69 2 27 1 0 0 0 0 0 0 0 0 0 0
3 4 4 4 5 7 5 2 3 8 11 14 14 21 1 3 13 0 5 0 0 1 2 0 0 0 0 0 85 111 77 15 41 9 1 0 2 0 1 0 0 0 0 0 0 0 0
2 3 5 3 5 7 8 5 1 6 11 5 4 12 1 0 0 1 0 0 0 0 2 0 0 3 23 0 18 137 9 0 12 0 13 11 0 24 23 3 2 0 0 0 0 0 0
1 2 4 5 2 4 7 7 6 3 3 8 5 4 2 0 0 0 0 0 0 0 0 0 3 27 80 21 19 11 0 1 0 2 10 15 9 0 17 13 8 10 0 0 0 0 0
1 1 3 3 3 6 6 7 5 2 2 1 6 3 1 0 0 0 0 0 0 0 6 0 0 0 0 11 2 1 0 0 0 16 14 19 6 1 8 11 9 11 4 0 2 0 0
0 0 1 1 2 5 7 4 4 2 2 4 1 0 1 1 0 0 0 0 1 0 0 0 9 0 10 19 2 3 6 0 0 6 0 0 0 1 0 15 9 9 0 0 0 0 0
0 0 1 3 2 2 3 6 6 1 0 2 4 1 0 0 2 1 2 1 0 0 0 3 5 12 3 6 4 0 0 1 0 0 0 0 0 0 2 4 0 0 2 0 0 0 0
0 0 0 3 3 1 1 0 4 1 0 0 0 0 0 0 1 4 0 0 0 1 1 0 2 2 0 0 1 3 2 0 5 0 0 0 0 0 0 0 0 1 0 1 0 0 0
0 0 0 2 3 2 2 0 0 0 0 0 0 0 0 0 0 0 1 0 0 0 5 11 9 5 10 0 0 8 3 3 2 1 0 0 0 3 0 0 0 0 1 0 0 0 0
0 0 0 2 3 1 1 0 0 0 0 0 0 0 0 0 0 0 0 0 1 2 1 0 1 0 8 10 8 3 6 0 0 0 0 0 0 2 2 2 0 0 0 1 0 0 0
0 0 0 2 1 4 2 1 0 0 0 0 0 0 0 0 0 0 0 0 0 0 0 0 0 0 0 0 3 1 1 0 0 0 0 0 0 2 1 0 0 0 0 0 0 0 0
0 1 1 2 3 1 3 2 0 0 0 0 0 0 0 0 0 1 0 0 0 0 0 0 0 0 1 0 2 0 0 0 0 0 0 0 0 0 0 0 0 2 0 0 0 0 0
0 0 1 2 2 3 1 1 0 0 0 1 0 0 0 0 2 1 0 0 0 0 0 0 0 0 0 0 0 0 0 0 0 0 0 0 0 0 0 0 0 0 0 0 0 0 0
0 0 2 1 1 2 4 0 0 0 0 0 0 0 1 0 0 2 0 0 0 0 0 0 0 0 0 0 0 0 0 0 0 0 0 0 0 0 0 0 0 0 0 0 0 0 0
0 0 0 0 0 6 3 0 0 0 0 0 0 0 0 0 0 0 0 0 0 0 0 0 0 0 0 0 0 0 0 0 0 0 0 0 0 0 0 0 0 0 0 0 0 0 0
0 0 0 1 0 1 5 0 0 0 0 0 1 0 1 0 0 0 0 1 0 0 0 0 0 0 0 0 0 0 0 0 0 0 0 0 0 0 0 0 0 0 0 0 0 0 0
0 0 2 1 1 1 7 1 0 0 0 0 0 1 2 0 0 0 0 1 0 0 0 0 0 0 0 3 0 0 0 0 0 0 0 0 0 0 0 0 0 0 0 0 0 0 0
0 0 1 0 1 0 1 6 10 0 0 0 0 1 1 0 0 0 0 0 0 0 0 0 0 1 0 0 0 0 0 0 0 0 0 0 1 0 0 0 0 0 0 0 0 0 0
0 0 1 0 0 1 0 1 8 4 0 0 0 0 0 0 0 0 0 0 0 0 0 0 0 0 0 0 0 0 0 1 1 0 0 3 1 2 0 0 0 0 0 0 0 0 0
0 0 0 2 1 1 2 10 8 2 0 0 0 0 0 0 0 0 0 0 0 0 4 0 0 0 0 5 11 0 2 0 0 2 3 3 1 0 0 0 0 0 0 0 0 0 0
0 0 8 3 0 1 14 11 4 6 2 0 1 0 0 0 0 0 0 0 0 0 0 11 2 1 1 1 1 3 0 1 1 0 0 2 6 0 1 0 0 0 0 0 0 0 0
0 2 15 0 0 0 5 14 19 2 2 0 2 0 0 0 0 0 0 0 0 0 0 0 2 4 14 2 3 7 0 0 0 0 0 0 0 0 1 2 0 0 0 3 0 0 0
5 1 2 0 0 0 12 24 18 4 10 0 6 0 0 0 0 0 0 0 0 0 0 0 0 0 4 16 9 4 0 1 0 0 0 0 0 0 0 0 0 0 0 0 0 0 0
CIN
0 0 -1 -1 -1 -1 0 0 0 0 0 0 -1 0 -1 0 -10 -1 0 0 0 0 -1 0 -9 -9 -5 0 0 -7 -2 -46 -14 -3 -5 -5 0 0 0 0 0 0 0 0 -7 0 0
-1 -1 0 -1 -1 -1 -1 -1 0 0 0 0 0 -1 0 0 -9 -1 -5 -1 0 0 0 0 -2 -15 -3 0 0 -2 -20 -1 -14 -3 -4 -13 0 -1 -1 -3 0 0 0 0 -8 0 0
-1 0 0 -1 -1 0 -1 -1 0 0 0 0 0 -1 -1 0 0 -3 -3 -14 -6 -1 -5 0 0 -24 0 -2 -8 -35 -30 -23 -23 -11 -1 -12 -3 -2 -5 -8 -2 -2 -4 0 0 0 0
-1 -1 0 0 -1 0 0 0 0 0 -1 0 -1 -1 0 -2 -12 -7 -21 -6 -15 -11 -8 -6 -2 -2 -2 0 0 0 -33 0 -15 -8 -3 -21 -12 -11 -2 -10 -2 -3 -9 -2 0 0 0
0 0 -1 -1 0 -1 0 0 0 0 0 0 0 0 0 0 -8 0 -26 -20 -24 -19 0 -4 -3 0 -3 0 0 0 -9 -13 -10 -11 -8 -12 -8 -7 -7 -6 -2 -3 0 0 0 0 0
0 0 -1 0 0 0 -1 -1 0 0 0 0 0 0 -1 -2 0 -14 -50 -60 -46 -39 -18 -2 -1 -1 -10 -7 0 0 0 -2 -1 -7 -2 -4 -6 -7 -3 -3 -1 0 0 0 0 0 0
0 0 0 0 0 -1 -1 0 0 0 0 0 0 0 0 -2 0 0 -22 -12 -5 -7 -1 -7 -6 -2 0 -7 -3 0 -8 -5 -3 -15 0 -4 -3 0 0 0 0 0 0 0 0 0 0
0 0 0 -1 -1 0 -1 -1 0 0 0 0 0 0 0 -2 -4 0 -15 0 0 -1 -2 0 0 0 0 0 0 -7 -2 -3 0 0 -1 0 0 0 -1 -1 -1 0 -1 0 0 0 0
0 0 0 0 0 0 0 -1 0 0 0 0 0 0 0 0 0 -5 0 0 0 0 0 0 0 -15 -4 0 -3 0 -4 -1 -21 0 0 0 0 -2 -2 -7 -3 0 0 0 0 0 0
0 0 0 0 -1 -1 -1 0 0 0 0 0 0 0 0 0 0 0 0 0 0 0 0 0 -2 -11 -7 -2 -1 -15 0 -1 0 0 -1 -2 -4 0 -2 -3 -5 -3 -2 0 -6 0 0
0 0 0 0 0 0 0 0 0 0 0 0 0 0 0 0 0 0 0 0 0 0 -17 0 0 0 0 0 -2 0 0 -2 0 -1 -4 -1 -1 -5 -3 -14 -5 -4 -10 -1 -18 0 0
0 0 0 0 0 0 0 0 0 0 0 0 0 0 0 -7 -2 0 0 0 0 0 -1 0 -1 0 -3 -1 0 0 0 0 0 -6 -21 0 0 -3 0 -4 -4 -6 0 0 0 0 0
0 0 0 0 0 0 0 0 0 0 0 0 0 0 0 0 -1 0 0 0 0 0 0 -2 0 -3 0 0 0 0 0 0 0 -3 -4 0 0 0 -1 0 0 0 -19 0 0 0 0
0 0 0 0 0 0 0 0 0 0 0 0 0 0 0 0 -1 0 -2 0 0 -2 0 0 -7 -6 0 0 -1 0 0 0 0 0 0 0 0 0 0 0 0 -1 0 -5 0 0 0
0 0 0 0 0 0 0 0 0 0 0 0 0 0 0 0 0 0 0 0 0 -1 -6 -2 -2 -4 -1 0 0 -2 -1 0 0 0 0 0 0 0 0 0 0 0 -17 0 0 0 0
0 0 0 0 0 0 0 0 0 0 0 0 0 0 0 0 0 0 0 0 -1 -7 -2 -1 -2 0 -1 -1 -4 -6 -2 -2 0 0 0 0 0 0 0 0 0 0 0 -3 0 0 0
0 0 0 0 0 0 0 0 0 0 0 0 0 0 0 0 0 0 0 0 -1 0 0 0 0 0 0 -1 -3 -1 -2 0 0 0 0 0 0 0 0 0 0 0 0 0 0 0 0
0 0 0 0 0 -1 0 0 0 0 0 0 0 0 0 0 -3 -2 0 0 0 0 0 0 0 0 0 0 0 0 0 0 0 0 0 0 0 0 0 0 0 0 0 0 0 0 0
0 0 0 0 0 0 0 0 0 0 0 0 0 0 0 0 -1 -1 0 0 0 0 0 0 0 0 0 0 0 0 0 0 0 0 0 0 0 0 0 0 0 0 0 0 0 0 0
0 0 0 0 0 0 0 0 0 0 0 0 0 0 -2 0 0 -3 0 0 0 0 0 0 0 0 0 0 0 0 0 0 0 0 0 0 0 0 0 0 0 0 0 0 0 0 0
0 0 0 0 0 0 0 0 0 0 0 0 0 0 0 0 0 0 0 0 0 0 0 0 0 0 0 0 0 0 0 0 0 0 0 0 0 0 0 0 0 0 0 0 0 0 0
0 0 0 0 0 0 0 0 0 0 0 0 0 0 0 0 0 0 0 -1 0 -1 0 0 0 0 0 0 0 0 0 0 0 0 0 0 0 0 0 0 0 0 0 0 0 0 0
0 0 0 0 0 0 0 0 0 0 0 0 0 -3 0 0 0 0 0 -2 0 0 0 0 0 0 0 -8 0 0 0 0 -2 0 0 0 0 0 0 0 0 0 0 0 0 0 0
0 0 0 0 0 0 0 0 0 0 0 0 0 -2 -1 0 0 0 0 0 0 0 -1 0 0 -2 0 0 0 0 0 0 0 0 0 0 -3 -1 0 0 0 0 0 0 0 0 0
0 0 0 0 0 0 0 0 0 -1 0 0 0 0 -1 0 0 0 0 0 0 0 0 0 0 0 0 0 -1 -1 -3 -2 -2 0 0 -2 -3 -4 0 0 0 0 0 0 0 0 0
0 0 -1 -11 -8 -1 0 0 0 -1 0 0 0 0 0 0 0 0 0 0 0 0 -3 -1 0 0 0 -13 -5 -2 -3 0 -3 -2 -7 -1 -5 -1 -5 0 0 0 0 0 0 0 0
0 -6 -9 -11 0 -1 0 0 0 0 -1 0 -6 0 0 0 0 0 0 0 0 -1 -9 -2 0 -4 -21 -3 -7 -4 -3 -2 -1 -1 -2 -2 -3 -2 -3 -1 0 0 0 0 0 0 0
0 -5 -6 -1 0 0 0 0 0 -1 -2 0 -4 0 0 0 0 0 0 0 0 0 -5 0 -3 -9 -3 -2 -3 -6 0 -1 0 0 0 0 0 0 -3 -2 0 0 0 -2 0 0 0
-8 0 -2 0 0 0 0 0 0 -1 0 -2 -1 0 0 0 0 0 0 0 0 0 0 0 -1 -1 -16 -2 -3 -5 -1 -4 -1 0 0 0 0 0 0 0 0 0 0 0 0 0 0
Wind_Speed
37 37 38 38 37 35 33 36 38 39 37 38 38 33 28 22 20 17 15 17 18 18 22 22 22 23 19 27 33 20 22 24 24 24 27 27 26 28 32 33 31 42 38 38 39 23 26
37 38 39 38 38 35 33 36 39 38 38 40 39 33 28 19 9 13 12 12 18 21 19 21 21 20 20 29 24 22 19 27 25 26 25 27 27 24 28 26 36 32 35 31 31 27 27
36 38 38 39 37 35 33 36 38 38 38 40 40 34 27 14 8 14 11 11 17 20 16 21 20 20 27 27 16 15 19 24 23 25 25 25 26 27 22 31 25 19 31 32 31 26 26
36 37 38 38 36 35 33 37 38 36 37 39 41 36 25 18 14 14 11 11 9 21 8 19 17 21 26 25 29 26 23 29 24 27 25 23 27 27 21 21 24 32 28 38 32 28 23
36 37 37 36 35 36 34 37 36 34 35 36 41 36 26 20 19 16 14 12 11 17 9 11 7 20 20 20 29 29 24 26 23 26 25 19 21 24 24 25 27 30 37 39 32 31 27
34 36 36 34 34 36 35 36 35 31 33 33 38 35 30 22 18 18 16 11 12 16 15 16 18 18 20 20 25 30 28 27 23 24 21 21 21 23 27 27 37 36 38 35 38 29 30
34 35 34 33 33 36 35 34 33 29 30 29 31 29 27 23 22 18 13 12 12 15 17 14 14 21 20 18 27 31 29 24 22 25 22 22 24 24 19 28 26 26 31 36 31 24 27
33 34 35 33 32 36 34 34 32 27 26 25 23 20 23 25 22 19 16 18 17 15 16 15 15 19 21 22 27 23 21 24 25 24 20 22 32 25 21 30 33 30 30 36 27 23 27
32 34 34 33 31 33 34 33 33 25 20 18 20 13 17 21 22 21 22 19 15 13 19 16 17 21 24 28 26 20 23 21 25 23 22 21 23 21 20 30 33 33 34 30 31 25 27
32 33 33 33 28 28 33 33 33 23 15 14 14 10 10 14 18 18 17 16 16 13 26 22 20 22 24 19 22 17 17 20 19 23 19 22 18 24 24 31 30 31 27 29 28 28 34
30 32 33 33 29 26 32 35 32 23 10 10 9 8 9 9 10 12 17 16 14 12 28 18 19 17 16 12 18 14 17 15 22 24 23 25 23 22 26 27 22 21 16 22 25 30 31
30 31 32 31 29 27 28 33 33 28 12 10 7 6 10 12 12 13 15 15 14 20 24 19 19 20 20 15 15 18 18 13 20 20 17 21 21 22 28 23 22 11 13 19 23 28 38
29 30 32 32 30 27 28 35 38 40 24 17 8 5 12 10 8 13 13 15 19 21 18 19 21 20 24 23 22 25 16 24 25 26 29 22 23 22 22 11 12 12 13 24 32 34 37
27 29 31 32 31 27 26 38 40 41 34 23 11 8 14 11 10 13 15 16 18 16 21 20 20 19 18 18 19 20 11 17 16 20 25 19 24 22 21 19 15 16 17 23 32 35 34
26 29 30 33 32 31 26 26 42 42 37 29 13 14 13 15 16 16 14 19 17 15 13 16 18 16 16 16 20 17 11 11 12 17 23 24 19 16 17 20 18 19 24 22 26 25 27
26 28 31 32 34 34 30 37 32 44 38 32 16 13 15 19 18 12 14 17 14 13 11 13 14 15 15 17 19 17 12 11 6 12 17 17 17 18 20 21 16 18 20 22 24 28 32
25 28 31 33 35 35 35 32 43 44 39 31 18 13 16 16 16 7 17 18 16 13 14 13 12 11 12 11 14 13 12 12 13 17 18 13 12 14 12 22 12 15 22 23 23 23 28
25 28 32 34 35 36 37 37 36 42 41 27 17 16 15 14 14 13 15 11 15 14 14 14 14 14 14 12 13 12 11 11 13 13 12 15 11 11 13 9 8 17 23 23 23 27 26
25 28 31 35 37 37 37 35 38 41 37 22 17 15 15 15 15 15 13 12 17 16 15 16 15 16 15 13 14 13 13 13 13 14 13 12 13 13 15 17 14 19 8 16 23 21 25
24 26 31 35 38 37 37 38 38 39 35 19 15 16 14 12 15 16 11 9 15 17 18 17 15 14 13 13 16 14 13 12 13 14 15 16 14 17 17 15 13 15 9 11 15 23 22
24 27 30 35 37 36 36 37 38 40 35 19 16 14 16 15 14 18 16 17 21 20 18 18 17 19 16 15 15 14 11 12 12 12 13 16 16 18 19 17 16 16 16 14 14 18 23
24 27 31 34 36 35 35 36 37 41 32 20 19 17 20 19 17 14 13 15 17 17 18 17 20 16 17 18 17 15 12 11 12 10 12 13 15 16 20 20 23 25 23 19 17 17 26
24 27 30 32 34 35 36 34 35 39 34 22 22 19 19 23 17 17 17 17 15 16 16 17 19 15 16 16 17 17 15 16 14 10 8 10 13 16 19 19 23 28 25 16 18 15 12
24 25 29 31 33 34 33 33 33 34 32 25 23 19 19 22 22 20 20 20 20 17 18 13 16 17 16 15 14 14 14 15 15 16 14 12 11 14 18 19 25 19 17 17 5 14 12
22 24 28 30 31 31 32 30 30 32 31 25 24 20 20 23 27 24 24 23 25 24 19 18 15 15 14 14 13 13 14 16 14 15 15 13 10 15 16 19 27 24 16 16 12 18 14
21 23 25 29 31 30 31 30 29 29 29 26 24 22 19 22 23 25 27 25 24 23 18 18 16 17 16 16 17 17 17 18 14 13 16 14 10 12 13 18 20 17 17 17 16 22 23
19 22 23 28 28 29 30 29 27 26 28 27 22 23 21 24 23 24 24 25 24 25 26 20 19 17 17 23 21 14 19 19 17 15 14 9 11 3 11 22 25 19 15 14 18 18 14
18 19 22 25 27 28 29 28 26 29 27 23 23 22 22 24 31 26 24 25 26 25 28 23 23 19 17 26 20 11 15 11 13 10 10 6 11 12 13 20 24 11 14 19 14 12 10
18 20 20 23 26 27 28 27 26 26 28 23 24 19 20 22 27 30 35 34 30 26 25 24 23 22 20 21 22 18 18 21 11 11 4 4 4 13 10 16 17 15 18 12 11 12 12
Wind_Direction
13 12 12 12 13 13 14 11 9 7 5 2 360 357 355 353 348 348 356 352 349 353 320 308 287 268 268 256 247 273 232 225 230 231 234 236 226 229 235 237 242 239 240 243 245 261 254
13 13 12 13 13 15 15 13 10 10 10 7 7 5 2 5 13 14 19 16 342 329 352 307 289 271 257 251 258 256 243 231 230 225 229 233 230 233 240 242 238 248 245 256 247 253 259
14 13 14 14 15 16 17 13 13 13 13 13 12 10 11 20 54 28 53 51 340 319 261 295 297 266 248 247 274 249 238 233 228 223 225 231 233 234 248 242 245 250 242 251 248 251 257
15 14 15 15 16 15 18 15 15 17 18 18 17 17 21 39 66 40 73 74 59 266 163 349 323 262 252 253 248 244 236 230 235 224 229 229 235 240 252 250 245 241 249 239 247 246 257
15 16 17 18 18 17 19 17 18 21 22 24 24 29 37 60 59 50 53 78 188 236 58 69 237 247 249 242 236 228 227 228 231 221 228 230 238 239 242 238 240 240 240 242 246 247 253
16 15 17 19 20 17 19 18 21 26 27 29 31 37 47 70 78 73 64 104 73 47 90 129 210 232 233 235 225 213 217 222 222 211 223 224 234 235 236 234 234 236 239 245 246 248 249
16 16 18 20 21 17 20 21 24 29 30 32 37 44 52 69 77 90 108 122 141 124 173 207 214 213 212 230 197 195 205 213 218 209 218 220 228 225 217 236 246 246 244 246 248 250 250
16 16 17 20 22 18 21 21 24 30 33 35 39 48 56 67 79 85 99 109 125 155 157 179 190 198 198 194 188 202 204 206 210 205 219 226 233 240 241 241 241 249 248 243 258 250 254
15 16 17 20 23 20 20 21 22 30 31 32 39 45 59 70 76 84 90 109 129 145 135 148 169 174 169 167 187 201 209 215 206 210 220 228 244 244 241 242 242 246 248 247 249 255 263
14 16 18 20 25 24 19 19 21 29 26 27 35 48 62 76 77 93 115 125 122 137 120 130 148 166 175 183 185 213 214 220 219 214 223 239 254 239 246 243 244 247 253 249 250 252 256
15 17 18 20 25 27 20 15 19 26 1 14 20 41 68 93 101 122 110 91 107 158 118 140 152 187 193 195 184 200 215 228 221 218 229 235 238 239 243 243 246 256 252 248 252 252 262
14 16 18 21 26 26 23 18 16 20 328 331 349 55 83 98 113 114 109 99 127 134 121 150 154 176 176 184 184 194 212 237 232 226 239 240 243 245 239 248 247 250 250 251 254 255 252
13 15 17 17 20 24 23 14 9 1 313 311 309 87 96 113 132 117 135 136 140 125 148 140 151 163 154 151 157 162 232 220 219 219 220 241 241 241 233 244 254 245 239 247 245 247 249
14 14 15 15 17 21 19 9 4 332 319 307 288 106 93 132 137 139 145 149 142 143 139 155 159 161 167 167 175 160 196 208 222 222 222 235 233 239 248 252 253 250 251 252 245 246 249
14 13 14 13 14 16 18 16 359 334 321 311 270 85 98 92 105 144 167 139 162 176 179 173 174 176 187 192 190 196 214 214 237 237 231 233 247 260 264 259 261 253 252 261 256 259 253
12 12 10 9 11 12 17 6 11 336 321 318 39 68 72 57 86 207 187 160 194 214 228 200 204 207 195 184 185 197 226 240 299 257 246 240 256 257 247 258 271 262 258 251 254 250 251
12 11 10 8 8 8 9 11 354 340 324 311 15 50 29 36 47 244 108 144 196 283 284 264 268 263 259 260 222 238 259 254 245 223 230 258 277 255 272 254 263 259 251 254 259 264 257
13 13 9 7 6 6 7 7 321 344 337 357 14 16 17 33 48 91 80 42 247 274 291 299 297 278 281 297 287 312 300 301 269 262 272 268 283 280 283 298 295 266 255 252 258 260 266
14 11 8 5 5 4 6 10 4 340 347 5 3 358 358 352 14 12 0 339 279 285 293 291 294 298 301 310 304 306 311 310 294 288 293 296 286 281 280 282 288 271 282 268 262 276 268
13 13 7 4 3 2 4 7 7 327 350 9 4 340 354 33 1 315 34 56 308 296 287 290 315 311 319 312 302 308 315 319 313 310 301 291 294 287 282 296 300 285 277 267 276 269 272
10 8 6 3 3 4 6 9 9 335 334 9 359 339 324 334 1 310 307 305 270 279 293 294 300 283 298 310 309 313 329 323 320 324 315 302 293 288 286 294 297 297 288 273 264 273 275
9 8 3 4 4 3 5 9 11 356 330 15 349 332 304 304 317 336 334 320 298 301 290 300 279 303 297 295 298 313 327 334 325 325 321 318 304 300 288 287 288 283 286 287 278 274 275
4 5 5 5 4 4 3 7 11 0 352 14 353 328 306 287 304 311 316 304 314 307 317 298 296 309 302 311 307 303 317 314 326 346 331 334 323 308 294 300 293 284 285 279 279 282 267
3 6 4 5 4 3 4 6 9 3 354 3 0 341 310 285 286 293 300 297 285 303 295 330 306 302 319 322 326 324 326 316 314 308 311 323 331 321 304 303 284 301 308 304 239 284 277
5 6 4 5 3 4 4 10 13 4 351 2 1 349 318 290 281 284 287 286 273 268 287 294 321 326 338 328 336 334 323 318 317 312 306 313 330 322 314 300 280 290 307 307 309 290 204
4 6 6 1 359 1 3 6 6 7 354 357 2 353 327 298 286 284 279 282 275 275 286 295 309 306 311 311 302 301 302 302 321 338 301 306 324 323 321 308 291 304 309 299 296 290 281
5 5 3 359 359 360 1 7 11 8 354 358 359 355 333 302 290 290 280 276 280 274 264 286 295 297 296 227 230 268 303 301 312 316 323 331 322 332 321 293 279 301 318 309 294 302 316
7 7 3 358 1 0 358 3 6 1 353 2 357 5 345 312 287 284 280 275 277 277 263 282 277 285 291 258 263 261 183 161 326 337 344 1 325 319 310 299 291 335 319 293 316 331 341
9 8 5 359 356 356 358 4 9 3 351 356 343 5 351 323 296 289 273 272 274 278 279 278 279 280 287 288 285 303 303 293 328 333 32 111 348 323 324 310 311 315 312 327 332 334 327